Tucson, AZ

10:54 PM MST on October 20, 2019 (GMT -0700)
Tucson International

Weather History for KTUS - August, 2019

Change the Weather History Date:

Friday, August 2, 2019

  Actual Average Record
Temperature  
Mean Temperature 91 °F 86 °F  
Max Temperature 102 °F 97 °F 110 °F (1918)
Min Temperature 79 °F 74 °F 59 °F (1917)
Degree Days  
Heating Degree Days 0 0  
Month to date heating degree days 0 0  
Since 1 June heating degree days 0 0  
Since 1 July heating degree days 0 0  
Cooling Degree Days 26 21  
Month to date cooling degree days 48 42  
Year to date cooling degree days 1825 1821  
Since 1 June cooling degree days 1453 1319  
Growing Degree Days 40 (Base 50)    
Moisture  
Dew Point 62 °F    
Average Humidity 39    
Maximum Humidity 64    
Minimum Humidity 15    
Precipitation  
Precipitation 0.00 in 0.09 in 1.52 in (1897)
Month to date precipitation 0.01 0.18  
Year to date precipitation 6.11 5.70  
Sea Level Pressure  
Sea Level Pressure 29.83 in    
Wind  
Wind Speed 5 mph (SE)    
Max Wind Speed 13 mph    
Max Gust Speed 20 mph    
Visibility 10 miles    
Events      
T = Trace of Precipitation, MM = Missing Value Source: NWS Daily Summary

Daily Weather History Graph

Daily Weather History Graph

Search for Another Location

Airport or City:

Astronomy

Aug. 02, 2019 Rise Set
Actual Time 5:39 AM MST 7:20 PM MST
Civil Twilight 5:12 AM MST 7:46 PM MST
Nautical Twilight 4:40 AM MST 8:18 PM MST
Astronomical Twilight 4:07 AM MST 8:52 PM MST
Moon 7:19 AM MST (8/2) 8:56 PM MST (8/2)
Length of Visible Light 14h 33m
Length of Day
13h 40m
Waxing Crescent, 4% of the Moon is Illuminated
Aug 2
Waxing Crescent
Aug 7
First Quarter
Aug 15
Full
Aug 23
Last Quarter
Aug 30
New

Hourly Weather History & Observations

Time (MST) Temp. Heat Index Dew Point Humidity Pressure Visibility Wind Dir Wind Speed Gust Speed Precip Events Conditions
12:53 AM 82.0 °F 84.5 °F 66.9 °F 60% 29.84 in 10.0 mi SSE 6.9 mph - 0.00 in   Clear
1:53 AM 81.0 °F 83.3 °F 66.9 °F 62% 29.83 in 10.0 mi SE 9.2 mph - N/A   Clear
2:53 AM 80.1 °F 82.3 °F 66.9 °F 64% 29.84 in 10.0 mi SSE 6.9 mph - N/A   Clear
3:53 AM 81.0 °F 83.0 °F 66.0 °F 60% 29.84 in 10.0 mi SSE 5.8 mph - N/A   Clear
4:53 AM 80.1 °F 82.1 °F 66.0 °F 62% 29.86 in 10.0 mi SE 3.5 mph - N/A   Clear
5:53 AM 79.0 °F - 66.0 °F 64% 29.87 in 10.0 mi SE 6.9 mph - N/A   Clear
6:53 AM 81.0 °F 83.0 °F 66.0 °F 60% 29.88 in 10.0 mi SSE 6.9 mph - N/A   Clear
7:53 AM 84.9 °F 86.6 °F 64.9 °F 51% 29.89 in 10.0 mi SSE 6.9 mph - N/A   Clear
8:53 AM 89.1 °F 90.3 °F 64.0 °F 43% 29.89 in 10.0 mi Calm Calm - N/A   Clear
9:53 AM 93.0 °F 93.8 °F 62.1 °F 36% 29.88 in 10.0 mi Variable 3.5 mph - N/A   Clear
10:53 AM 96.1 °F 96.0 °F 60.1 °F 30% 29.87 in 10.0 mi NNW 6.9 mph - N/A   Clear
11:53 AM 99.0 °F 99.5 °F 60.1 °F 28% 29.85 in 10.0 mi Calm Calm - N/A   Clear
12:53 PM 99.0 °F 98.1 °F 57.9 °F 25% 29.83 in 10.0 mi Calm Calm - N/A   Scattered Clouds
1:53 PM 99.0 °F 98.1 °F 57.9 °F 25% 29.83 in 10.0 mi NE 3.5 mph - N/A   Clear
2:53 PM 99.0 °F 98.1 °F 57.0 °F 25% 29.80 in 10.0 mi NNE 3.5 mph - N/A   Clear
3:53 PM 100.0 °F 99.2 °F 57.0 °F 24% 29.78 in 10.0 mi North 6.9 mph - N/A   Clear
4:53 PM 100.0 °F 99.2 °F 57.0 °F 24% 29.78 in 10.0 mi Calm Calm - N/A   Clear
5:53 PM 99.0 °F 97.7 °F 55.9 °F 24% 29.77 in 10.0 mi Calm Calm - N/A   Clear
6:53 PM 98.1 °F 96.8 °F 57.0 °F 25% 29.78 in 10.0 mi ESE 5.8 mph - N/A   Clear
7:53 PM 95.0 °F 94.4 °F 59.0 °F 30% 29.81 in 10.0 mi SSE 6.9 mph - N/A   Clear
8:53 PM 91.9 °F 91.8 °F 61.0 °F 35% 29.82 in 10.0 mi South 10.4 mph - N/A   Clear
9:53 PM 90.0 °F 90.0 °F 61.0 °F 38% 29.82 in 10.0 mi SSE 5.8 mph - N/A   Clear
10:53 PM 89.1 °F 89.0 °F 61.0 °F 39% 29.83 in 10.0 mi SSE 9.2 mph - N/A   Clear
11:53 PM 87.1 °F 87.0 °F 61.0 °F 41% 29.82 in 10.0 mi SSE 6.9 mph - N/A   Clear